Погода в Трейнта-и-Трес

Уругвай     33°14′02″S   54°23′51″W
темп.,
°C
ветер,
м/с
пор.,
м/с
влажн.,
%
обл.,
%
осадки,
мм/ч
давл.,
гПа
погр.,
м
17 мая, вт
вт1700:00+10зюз9158794 0.2 1014791
03:00+10зюз9158382 0.2 1013864
06:00+10зюз9158193 0.0 1012893
09:00+12зюз101778100 0.0 10111505
12:00+10зюз132090100 4.1 1009896
15:00+12ююз132388100 6.6 10081464
18:00+12ююз132388100 0.3 10101574
21:00+12ююз101789100 0.6 10131258
18 мая, ср
ср1800:00+13ююз111991100 0.8 10141154
03:00+13ю101789100 1.8 10151024
06:00+12ююз91587100 0.0 1017935
09:00+12ююз713812 0.1 10191070
12:00+14ююз81172100 0.1 10201541
15:00+15ююз7116874 0.2 10191441
18:00+12ююз6127714 0.1 1020440
21:00+10ююз5108789 0.1 1021322
19 мая, чт
чт1900:00+9юз411885 0.0 1021308
03:00+9ююз487728 0.0 1020160
06:00+8юз35811 0.0 102065
09:00+10ююз38740 0.0 1021221
12:00+16ююв45580 0.0 10221385
15:00+15ююв4566100 0.1 1021408
18:00+12ю227161 0.0 102219
21:00+11юв117013 0.0 102312
20 мая, пт
пт2000:00+8ююз11810 0.0 102310
03:00+7зюз11840 0.0 102310
06:00+7з11830 0.0 102310
09:00+10зсз12750 0.0 102585
12:00+15сз22590 0.0 1024659
15:00+17сз23540 0.0 10221192
18:00+12ссз22730 0.0 102211
21:00+9сз22835 0.0 102414
21 мая, сб
сб2100:00+8сз228558 0.0 102511
03:00+8сз228649 0.0 102513
06:00+7зсз228866 0.0 102513
09:00+10сз238271 0.0 1026113
12:00+16сз336462 0.0 1025714
15:00+18сз2356100 0.0 10221164
18:00+13ссз2275100 0.0 102210
21:00+11с2283100 0.0 102310